Weather History for Whyalla, South Australia

Change the Weather History Date:

Monday, September 2, 2013

  Actual Average Record
Temperature  
Mean Temperature 63 °F -  
Max Temperature 78 °F - - ()
Min Temperature 48 °F - - ()
Degree Days  
Heating Degree Days 2    
Growing Degree Days 13 (Base 50)    
Moisture  
Dew Point 51 °F    
Average Humidity 70    
Maximum Humidity 94    
Minimum Humidity 34    
Precipitation  
Precipitation 0.00 in - - ()
Sea Level Pressure  
Sea Level Pressure 30.26 in    
Wind  
Wind Speed 5 mph ()    
Max Wind Speed 9 mph    
Max Gust Speed -    
Visibility 6.2 miles    
Events      
T = Trace of Precipitation, MM = Missing Value Source: Averaged Metar Reports

Daily Weather History Graph

Daily Weather History Graph

Search for Another Location

Airport:

Trip Planner

Search our weather history database for the weather conditions in past years. The results will help you decide how hot, cold, wet, or windy it might be!

Date:

Astronomy

Sep. 02, 2013 Rise Set
Actual Time 6:36 AM ACST 6:03 PM ACST
Civil Twilight 6:11 AM ACST 6:28 PM ACST
Nautical Twilight 5:43 AM ACST 6:56 PM ACST
Astronomical Twilight 5:14 AM ACST 7:25 PM ACST
Moon 4:11 AM ACST (9/2) 3:09 PM ACST (9/2)
Length of Visible Light 12h 16m
Length of Day
11h 26m
Waning Crescent, 11% of the Moon is Illuminated
Sep 2
Waning Crescent
Sep 5
New
Sep 13
First Quarter
Sep 19
Full
Sep 27
Last Quarter

Hourly Weather History & Observations

Time (ACST) Temp. Dew Point Humidity Pressure Visibility Wind Dir Wind Speed Gust Speed Precip Events Conditions
12:30 AM 59.0 °F 53.6 °F 82% 30.27 in 6.2 mi SSW 9.2 mph - N/A   Unknown
1:30 AM 57.2 °F 53.6 °F 88% 30.27 in 6.2 mi SSW 8.1 mph - N/A   Unknown
2:30 AM 57.2 °F 53.6 °F 88% 30.24 in 6.2 mi SSW 8.1 mph - N/A   Unknown
3:30 AM 53.6 °F 50.0 °F 88% 30.24 in 6.2 mi SW 2.3 mph - N/A   Unknown
4:30 AM 50.0 °F 48.2 °F 94% 30.24 in 6.2 mi SSW 2.3 mph - N/A   Unknown
5:30 AM 50.0 °F 48.2 °F 94% 30.27 in 6.2 mi WNW 3.5 mph - N/A   Unknown
6:30 AM 48.2 °F 46.4 °F 93% 30.30 in 6.2 mi WNW 5.8 mph - N/A   Unknown
7:30 AM 50.0 °F 48.2 °F 94% 30.30 in 6.2 mi NW 3.5 mph - N/A   Unknown
8:30 AM 60.8 °F 55.4 °F 82% 30.33 in 6.2 mi SW 3.5 mph - N/A   Unknown
9:30 AM 66.2 °F 55.4 °F 68% 30.33 in 6.2 mi South 1.2 mph - N/A   Unknown
10:30 AM 69.8 °F 55.4 °F 60% 30.30 in 6.2 mi SSE 4.6 mph - N/A   Unknown
11:30 AM 73.4 °F 57.2 °F 57% 30.30 in 6.2 mi SE 6.9 mph - N/A   Unknown
12:30 PM 73.4 °F 55.4 °F 53% 30.27 in 6.2 mi SSE 6.9 mph - N/A   Unknown
1:30 PM 77.0 °F 53.6 °F 44% 30.24 in 6.2 mi SE 8.1 mph - N/A   Unknown
2:30 PM 77.0 °F 50.0 °F 39% 30.24 in 6.2 mi SE 8.1 mph - N/A   Unknown
3:30 PM 78.8 °F 48.2 °F 34% 30.24 in 6.2 mi SE 8.1 mph - N/A   Unknown
4:30 PM 77.0 °F 48.2 °F 36% 30.21 in 6.2 mi SE 8.1 mph - N/A   Unknown
5:30 PM 71.6 °F 51.8 °F 50% 30.24 in 6.2 mi SE 6.9 mph - N/A   Unknown
6:30 PM 68.0 °F 53.6 °F 60% 30.24 in 6.2 mi ESE 4.6 mph - N/A   Unknown
7:30 PM 66.2 °F 53.6 °F 64% 30.24 in 6.2 mi SSE 2.3 mph - N/A   Unknown
8:30 PM 59.0 °F 50.0 °F 72% 30.24 in 6.2 mi Calm Calm - N/A   Unknown
9:30 PM 57.2 °F 50.0 °F 77% 30.24 in 6.2 mi WSW 4.6 mph - N/A   Unknown
10:30 PM 55.4 °F 48.2 °F 77% 30.24 in 6.2 mi Calm Calm - N/A   Unknown
11:30 PM 53.6 °F 48.2 °F 82% 30.24 in 6.2 mi SW 3.5 mph - N/A   Unknown